When you browse on this site, cookies collect data to enhance your experience and personalize the content and advertising you see.
Visit our Privacy Policy to learn more. By continuing to use the site, you agree to this use of cookies and data.
  • In Romania
  • List of Countries
  • For 7 days
  • Water Temperature
  • Satellite Maps
  • Weather Map
  • Weather Widgets
  • user-avatar
    Login

    Hourly Weather Haro

    Today, 22 February, Friday

    Time Temperature Precipitation Wind Pressure Humidity
    00:00 +9°C° 0 mm 1 mps 729 mmHg 58%
    01:00 +9°C° 0 mm 1 mps 729 mmHg 58%
    02:00 +9°C° 0 mm 1 mps 729 mmHg 57%
    03:00 +8°C° 0 mm 1 mps 729 mmHg 57%
    04:00 +8°C° 0 mm 1 mps 729 mmHg 56%
    05:00 +8°C° 0 mm 1 mps 729 mmHg 55%
    06:00 +8°C° 0 mm 1 mps 729 mmHg 55%
    07:00 +9°C° 0 mm 1 mps 729 mmHg 52%
    08:00 +11°C° 0 mm 1 mps 729 mmHg 49%
    09:00 +12°C° 0 mm 1 mps 729 mmHg 47%
    10:00 +14°C° 0 mm 1 mps 729 mmHg 41%
    11:00 +16°C° 0 mm 1 mps 729 mmHg 35%
    12:00 +20°C° 0 mm 1 mps 729 mmHg 29%
    13:00 +20°C° 0 mm 1 mps 729 mmHg 28%
    14:00 +21°C° 0 mm 1 mps 728 mmHg 27%
    15:00 +21°C° 0 mm 1 mps 728 mmHg 26%
    16:00 +19°C° 0 mm 1 mps 728 mmHg 31%
    17:00 +16°C° 0 mm 1 mps 728 mmHg 36%
    18:00 +14°C° 0 mm 1 mps 727 mmHg 41%
    19:00 +13°C° 0 mm 1 mps 728 mmHg 43%
    20:00 +12°C° 0 mm 1 mps 728 mmHg 44%
    21:00 +10°C° 0 mm 2 mps 728 mmHg 46%
    22:00 +10°C° 0 mm 2 mps 728 mmHg 46%
    23:00 +10°C° 0 mm 2 mps 728 mmHg 46%

    Tomorrow, 23 February, Saturday

    Time Temperature Precipitation Wind Pressure Humidity
    00:00 +9°C° 0 mm 2 mps 728 mmHg 46%
    01:00 +9°C° 0 mm 2 mps 728 mmHg 47%
    02:00 +8°C° 0 mm 2 mps 727 mmHg 47%
    03:00 +8°C° 0 mm 2 mps 727 mmHg 48%
    04:00 +8°C° 0 mm 2 mps 727 mmHg 49%
    05:00 +8°C° 0 mm 2 mps 727 mmHg 50%
    06:00 +7°C° 0 mm 2 mps 728 mmHg 52%
    07:00 +9°C° 0 mm 2 mps 728 mmHg 51%
    08:00 +10°C° 0 mm 2 mps 728 mmHg 51%
    09:00 +12°C° 0 mm 2 mps 729 mmHg 51%
    10:00 +14°C° 0 mm 2 mps 729 mmHg 46%
    11:00 +16°C° 0 mm 2 mps 729 mmHg 41%
    12:00 +18°C° 0 mm 2 mps 729 mmHg 36%
    13:00 +19°C° 0 mm 2 mps 729 mmHg 36%
    14:00 +19°C° 0 mm 2 mps 729 mmHg 36%
    15:00 +19°C° 0 mm 2 mps 729 mmHg 36%
    16:00 +17°C° 0 mm 2 mps 729 mmHg 43%
    17:00 +15°C° 0 mm 2 mps 729 mmHg 50%
    18:00 +13°C° 0 mm 1 mps 729 mmHg 57%
    19:00 +13°C° 0 mm 1 mps 729 mmHg 61%
    20:00 +12°C° 0 mm 1 mps 729 mmHg 66%
    21:00 +11°C° 0 mm 1 mps 730 mmHg 71%
    22:00 +10°C° 0 mm 1 mps 729 mmHg 72%
    23:00 +10°C° 0 mm 1 mps 729 mmHg 74%

    Day after tomorrow, 24 February, Sunday

    Time Temperature Precipitation Wind Pressure Humidity
    00:00 +9°C° 0 mm 1 mps 729 mmHg 76%
    01:00 +9°C° 0 mm 1 mps 729 mmHg 75%
    02:00 +8°C° 0 mm 1 mps 730 mmHg 73%
    03:00 +8°C° 0 mm 1 mps 730 mmHg 72%
    04:00 +8°C° 0 mm 1 mps 730 mmHg 70%
    05:00 +8°C° 0 mm 1 mps 729 mmHg 68%
    06:00 +7°C° 0 mm 1 mps 729 mmHg 66%
    07:00 +8°C° 0 mm 0 mps 730 mmHg 61%
    08:00 +9°C° 0 mm 0 mps 730 mmHg 56%
    09:00 +11°C° 0 mm 0 mps 730 mmHg 52%
    10:00 +14°C° 0 mm 1 mps 730 mmHg 47%
    11:00 +15°C° 0 mm 1 mps 730 mmHg 43%
    12:00 +18°C° 0 mm 1 mps 731 mmHg 39%
    13:00 +19°C° 0 mm 1 mps 730 mmHg 39%
    14:00 +18°C° 0 mm 2 mps 730 mmHg 40%
    15:00 +19°C° 0 mm 2 mps 729 mmHg 40%
    16:00 +18°C° 0 mm 1 mps 729 mmHg 46%
    17:00 +15°C° 0 mm 1 mps 729 mmHg 53%
    18:00 +13°C° 0 mm 1 mps 729 mmHg 59%
    19:00 +12°C° 0 mm 1 mps 729 mmHg 63%
    20:00 +11°C° 0 mm 1 mps 730 mmHg 66%
    21:00 +10°C° 0 mm 0 mps 730 mmHg 70%
    22:00 +9°C° 0 mm 0 mps 730 mmHg 70%
    23:00 +9°C° 0 mm 0 mps 730 mmHg 71%

    25 February, Monday

    Time Temperature Precipitation Wind Pressure Humidity
    00:00 +8°C° 0 mm 0 mps 730 mmHg 72%
    01:00 +9°C° 0 mm 1 mps 730 mmHg 72%
    02:00 +9°C° 0 mm 1 mps 730 mmHg 71%
    03:00 +9°C° 0 mm 1 mps 730 mmHg 71%
    04:00 +8°C° 0 mm 1 mps 730 mmHg 73%
    05:00 +8°C° 0 mm 1 mps 730 mmHg 74%
    06:00 +7°C° 0 mm 2 mps 730 mmHg 76%
    07:00 +8°C° 0 mm 2 mps 730 mmHg 74%
    08:00 +9°C° 0 mm 2 mps 730 mmHg 72%
    09:00 +10°C° 0 mm 2 mps 731 mmHg 70%
    10:00 +13°C° 0 mm 2 mps 730 mmHg 65%
    11:00 +14°C° 0 mm 3 mps 730 mmHg 61%
    12:00 +16°C° 0 mm 3 mps 730 mmHg 56%
    13:00 +17°C° 0 mm 3 mps 729 mmHg 54%
    14:00 +18°C° 0 mm 3 mps 729 mmHg 53%
    15:00 +18°C° 0 mm 3 mps 728 mmHg 51%
    16:00 +17°C° 0 mm 3 mps 728 mmHg 58%
    17:00 +14°C° 0 mm 3 mps 728 mmHg 65%
    18:00 +13°C° 0 mm 2 mps 728 mmHg 72%
    19:00 +12°C° 0 mm 2 mps 728 mmHg 73%
    20:00 +12°C° 0 mm 2 mps 728 mmHg 74%
    21:00 +10°C° 0 mm 2 mps 728 mmHg 76%
    22:00 +9°C° 0 mm 2 mps 728 mmHg 76%
    23:00 +9°C° 0 mm 2 mps 728 mmHg 76%

    26 February, Tuesday

    Time Temperature Precipitation Wind Pressure Humidity
    00:00 +9°C° 0 mm 2 mps 727 mmHg 76%
    01:00 +9°C° 0 mm 2 mps 727 mmHg 76%
    02:00 +8°C° 0 mm 2 mps 727 mmHg 77%
    03:00 +8°C° 0 mm 2 mps 727 mmHg 77%
    04:00 +7°C° 0 mm 2 mps 727 mmHg 76%
    05:00 +7°C° 0 mm 2 mps 727 mmHg 76%
    06:00 +7°C° 0 mm 2 mps 727 mmHg 76%
    07:00 +8°C° 0 mm 2 mps 727 mmHg 70%
    08:00 +9°C° 0 mm 3 mps 727 mmHg 64%
    09:00 +10°C° 0 mm 3 mps 727 mmHg 58%
    10:00 +12°C° 0 mm 3 mps 727 mmHg 50%
    11:00 +14°C° 0 mm 4 mps 727 mmHg 43%
    12:00 +17°C° 0 mm 4 mps 727 mmHg 36%
    13:00 +18°C° 0 mm 4 mps 727 mmHg 35%
    14:00 +19°C° 0 mm 4 mps 726 mmHg 33%
    15:00 +19°C° 0 mm 4 mps 726 mmHg 32%
    16:00 +17°C° 0 mm 4 mps 726 mmHg 38%
    17:00 +14°C° 0 mm 4 mps 726 mmHg 44%
    18:00 +12°C° 0 mm 3 mps 726 mmHg 49%
    19:00 +11°C° 0 mm 3 mps 726 mmHg 51%
    20:00 +10°C° 0 mm 3 mps 726 mmHg 53%
    21:00 +9°C° 0 mm 2 mps 726 mmHg 54%
    22:00 +9°C° 0 mm 2 mps 726 mmHg 55%
    23:00 +9°C° 0 mm 2 mps 726 mmHg 56%

    27 February, Wednesday

    Time Temperature Precipitation Wind Pressure Humidity
    00:00 +8°C° 0 mm 2 mps 726 mmHg 57%
    01:00 +8°C° 0 mm 2 mps 726 mmHg 57%
    02:00 +7°C° 0 mm 2 mps 726 mmHg 57%
    03:00 +7°C° 0 mm 2 mps 726 mmHg 58%
    04:00 +7°C° 0 mm 2 mps 726 mmHg 58%
    05:00 +6°C° 0 mm 2 mps 726 mmHg 58%
    06:00 +6°C° 0 mm 2 mps 726 mmHg 58%
    07:00 +8°C° 0 mm 1 mps 726 mmHg 55%
    08:00 +10°C° 0 mm 1 mps 726 mmHg 51%
    09:00 +11°C° 0 mm 1 mps 726 mmHg 48%
    10:00 +13°C° 0 mm 2 mps 726 mmHg 43%
    11:00 +15°C° 0 mm 2 mps 726 mmHg 38%
    12:00 +17°C° 0 mm 3 mps 726 mmHg 33%
    13:00 +18°C° 0 mm 3 mps 726 mmHg 33%
    14:00 +19°C° 0 mm 3 mps 725 mmHg 32%
    15:00 +19°C° 0 mm 3 mps 725 mmHg 31%
    16:00 +17°C° 0 mm 3 mps 725 mmHg 37%
    17:00 +15°C° 0 mm 2 mps 724 mmHg 43%
    18:00 +13°C° 0 mm 2 mps 724 mmHg 48%
    19:00 +12°C° 0 mm 2 mps 724 mmHg 48%
    20:00 +10°C° 0 mm 2 mps 724 mmHg 48%
    21:00 +10°C° 0 mm 1 mps 725 mmHg 48%
    22:00 +10°C° 0 mm 1 mps 725 mmHg 47%
    23:00 +10°C° 0 mm 1 mps 725 mmHg 47%
    Show more